CST,Max TemperatureF,Mean TemperatureF,Min TemperatureF,Max Dew PointF,MeanDew PointF,Min DewpointF,Max Humidity, Mean Humidity, Min Humidity, Max Sea Level PressureIn, Mean Sea Level PressureIn, Min Sea Level PressureIn, Max VisibilityMiles, Mean VisibilityMiles, Min VisibilityMiles, Max Wind SpeedMPH, Mean Wind SpeedMPH, Max Gust SpeedMPH,PrecipitationIn, CloudCover, Events, WindDirDegrees
2012-1-1,33,30,28,32,27,19,93,82,69,29.97,29.74,29.56,10,6,2,23,10,34,0.06,8,Rain-Snow,292
2012-1-2,23,18,14,14,9,3,74,61,54,30.39,30.19,30.01,10,10,4,22,14,32,0.00,5,Snow,313
2012-1-3,23,14,5,12,5,0,85,66,50,30.40,30.23,29.95,10,10,10,13,6,18,0.00,0,,210
2012-1-4,32,24,15,21,18,10,79,69,64,30.01,29.93,29.86,10,10,10,12,4,20,0.00,2,,281
2012-1-5,44,32,19,32,25,18,93,77,61,29.96,29.78,29.56,10,10,10,9,2,,0.00,0,,203
2012-1-6,48,42,37,32,31,28,70,60,53,29.72,29.63,29.54,10,10,10,12,8,18,0.00,1,,264
2012-1-7,37,32,28,28,24,21,87,67,56,30.22,30.00,29.73,10,10,10,16,9,23,0.00,4,,281
2012-1-8,42,32,21,28,24,18,93,76,53,30.29,30.24,30.21,10,10,10,13,3,16,0.00,0,,230
2012-1-9,46,37,28,28,27,23,86,69,46,30.14,29.91,29.79,10,10,10,23,10,28,0.00,1,,234
2012-1-10,51,37,23,32,28,21,93,74,44,29.98,29.90,29.77,10,10,7,13,4,17,0.00,0,,218
2012-1-11,55,40,26,32,29,25,93,72,33,29.69,29.59,29.53,10,9,5,9,2,,0.00,1,,274
2012-1-12,37,30,23,32,24,18,87,81,75,29.56,29.54,29.48,10,5,1,17,10,23,0.00,8,Snow,333
2012-1-13,26,24,21,16,12,9,80,65,51,29.95,29.77,29.58,10,8,2,15,10,20,0.00,8,Snow,323
2012-1-14,19,16,14,12,8,5,79,68,54,30.18,30.07,29.99,10,9,3,6,3,,0.00,8,Snow,15
2012-1-15,32,21,10,23,16,7,86,74,64,30.23,30.14,29.98,10,10,10,14,4,21,0.00,5,,143
2012-1-16,35,28,21,27,23,18,93,81,70,29.91,29.77,29.71,10,8,2,9,4,,0.00,2,,55
2012-1-17,32,23,14,25,17,3,80,67,51,30.16,29.89,29.76,10,8,1,18,11,25,0.00,6,Snow,338
2012-1-18,21,10,-2,10,1,-8,78,66,49,30.21,30.05,29.74,10,10,10,13,5,17,0.00,1,,190
2012-1-19,24,11,-4,18,-10,-18,80,53,39,30.14,29.95,29.64,10,9,1,24,13,37,0.00,1,Snow,283
2012-1-20,8,0,-7,1,-7,-17,85,67,52,30.20,30.18,30.16,10,8,0,5,1,,0.00,5,Snow,218
2012-1-21,19,7,-5,5,-3,-13,85,68,42,30.25,30.21,30.16,10,10,10,7,2,,0.00,0,,150
2012-1-22,32,23,14,30,21,5,93,84,67,30.04,29.81,29.61,10,6,1,15,6,18,0.00,6,,135
2012-1-23,35,32,28,32,28,21,100,85,69,29.77,29.47,29.26,10,6,1,21,8,29,0.01,8,Rain-Snow,297
2012-1-24,30,24,17,23,19,14,86,73,60,30.30,30.10,29.79,10,10,7,15,10,23,0.00,5,,279
2012-1-25,32,24,17,27,22,14,93,81,69,30.36,30.22,30.03,10,8,4,8,2,,0.00,7,Snow,152
2012-1-26,33,30,28,32,29,25,93,90,80,29.99,29.79,29.64,7,4,0,9,5,,0.00,8,Fog,189
2012-1-27,41,32,24,32,21,12,93,60,33,29.85,29.78,29.65,10,10,3,20,9,30,0.00,3,Snow,249
2012-1-28,33,28,23,32,18,14,93,66,48,29.95,29.84,29.70,10,9,2,23,13,32,0.00,5,Rain-Snow,273
2012-1-29,26,20,14,12,9,5,86,65,43,30.13,30.01,29.92,10,10,10,15,5,23,0.00,2,,280
2012-1-30,35,22,10,25,17,3,86,74,60,30.14,29.88,29.74,10,9,4,10,2,,0.00,4,Snow,116
2012-1-31,50,36,21,34,27,19,93,76,50,29.74,29.66,29.61,10,7,4,13,3,18,0.00,0,,236